Location: Arroyo Grande
(40.2671°N, 4.2512°W)
Time: 05:44:22
(UTC+00:00)

IRIDIUM 106 - Pass Details

Date: 03 February 2023
Orbit: 776 x 779 km, 86.4° (Epoch: 25 March)

Event Time Altitude Azimuth Distance (km) Brightness Sun altitude
Rises 19:05:04 0° 358° (N) 3,272 7.5 -17.0°
Reaches altitude 10° 19:07:26 10° 360° (N) 2,340 6.7 -17.4°
Maximum altitude 19:12:41 79° 88° (E) 797 4.2 -18.4°
Drops below altitude 10° 19:17:53 10° 175° (S) 2,321 6.8 -19.4°
Sets 19:20:14 0° 176° (S) 3,244 7.6 -19.8°
